Flag for Mexico Weather past 2 weeks in Veracruz, Veracruz, Mexico

Now
75 °F

Passing clouds.


Feels Like: 75 °F
Forecast: 78 / 86 °F
Wind: No wind

Location: Gen. Heriberto Jara

Current Time: Sep 22, 2014 at 9:22:05 AM

Latest Report: Sep 22, 2014 at 7:50 AM


Visibility: 7 mi

Pressure: 29.90 "Hg

Humidity: 89%

Dew point: 72 °F

Location of VeracruzLocation

Historic Weather in Veracruz — Graph

°F

Veracruz temperature yesterday

Maximum temperature yesterday: 88 °F (at 11:44 AM)
Minimum temperature yesterday: 73 °F (at 6:51 AM)
Average temperature yesterday: 82 °F

Past Weeks' High & Low Weather Summary

 TemperatureHumidityPressure
High91 °F (Sep 19, 1:45 PM)94% (Sep 7, 7:52 AM)30.06 "Hg (Sep 7, 7:52 AM)
Low70 °F (Sep 15, 7:45 AM)59% (Sep 10, 3:46 PM)29.67 "Hg (Sep 19, 6:48 PM)
Average80 °F81%29.88 "Hg
* Reported Sep 7 7:52 AM — Sep 22 7:50 AM, Veracruz, Weather by CustomWeather, © 2014

Note: Actual official high and low records may vary slightly from our data, if they occured in-between our weather recording intervals... More about our weather records

Advertising

Veracruz weather history for previous 24 hours

 ConditionsComfort  
Time TempWeatherWind HumidityBarometerVisibility
7:50 AM
Sep 22
75 °FPassing clouds.No wind89%29.90 "Hg7 mi
6:51 AM73 °FPassing clouds.3 mph94%29.85 "Hg7 mi
5:50 AM75 °FPartly cloudy.6 mph89%29.90 "Hg6 mi
4:58 AM75 °FMostly cloudy.5 mph94%29.91 "Hg6 mi
10:45 PM
Sep 21
77 °FRain. Passing clouds.5 mph89%29.95 "Hg3 mi
10:08 PM81 °FPassing clouds.9 mph84%29.95 "Hg6 mi
9:46 PM82 °FPassing clouds.3 mph79%29.91 "Hg6 mi
8:45 PM82 °FPassing clouds.10 mph84%29.90 "Hg6 mi
7:46 PM82 °FPartly sunny.6 mph84%29.86 "Hg6 mi
5:47 PM84 °FScattered clouds.8 mph79%29.83 "Hg7 mi
4:45 PM86 °FScattered clouds.12 mph75%29.83 "Hg7 mi
3:47 PM86 °FPartly sunny.7 mph75%29.80 "Hg7 mi
2:46 PM86 °FBroken clouds.8 mph75%29.87 "Hg7 mi
1:46 PM84 °FPartly sunny.7 mph74%29.89 "Hg6 mi
12:50 PM84 °FPartly sunny.8 mph74%29.87 "Hg6 mi
11:44 AM88 °FScattered clouds.7 mph66%29.93 "Hg6 mi
11:02 AM84 °FPartly sunny.3 mph74%29.93 "Hg7 mi
9:51 AM84 °FPartly sunny.3 mph79%29.84 "Hg7 mi
Weather by CustomWeather, © 2014

See weather overviewHow to use our weather pages